Location: Heilwood
(40.6210°N, 78.9150°W)
Time: 23:36:20
(UTC-04:00)

Daily predictions for brighter satellites

Satellite Brightness Start Highest point End
(mag) Time Altitude Azimuth Time Altitude Azimuth Time Altitude Azimuth
Cosmos 1833 Rocket 4.5 20:54:39 10° N 20:58:15 17° NE 21:01:50 10° E
Envisat 3.9 20:56:18 10° SE 21:00:43 31° ENE 21:05:09 10° N
Cosmos 1844 Rocket 3.0 20:55:57 10° SSW 21:01:36 78° WNW 21:07:16 10° NNE
Meteor 2-6 Rocket 4.3 20:57:05 10° N 21:03:02 77° E 21:08:48 10° SSE
Cosmos 1825 3.0 21:00:04 10° SSE 21:03:27 31° E 21:06:51 10° NNE
FENGYUN 3A 3.9 20:58:21 10° S 21:03:44 75° WSW 21:09:09 10° NNW
Cosmos 2278 Rocket 2.3 21:00:54 10° S 21:06:24 56° ESE 21:11:57 10° NNE
Atlas Centaur 2 3.3 21:05:04 10° SW 21:06:39 12° SSW 21:08:11 10° S
COSMOS 2406 4.3 21:02:43 10° NW 21:08:10 45° WSW 21:13:32 10° S
ERS-1 Rocket 3.2 21:04:48 10° SSE 21:09:42 55° ENE 21:14:37 10° N
Cosmos 1420 Rocket 4.5 21:07:41 10° S 21:12:31 39° ESE 21:17:22 10° NE
Cosmos 1844 3.9 21:07:24 10° SSW 21:13:10 85° WNW 21:19:01 10° NNE
Timation 2 Rocket 4.4 21:07:44 10° NNW 21:13:27 43° ENE 21:19:05 10° SE
ISS -2.3 21:10:36 10° WSW 21:13:46 49° NNW 21:16:57 10° NE
H-2A R/B 2.9 21:10:08 10° SE 21:13:59 33° ENE 21:17:46 10° N
Cosmos 1140 Rocket 4.0 21:10:49 10° N 21:15:45 44° ENE 21:20:40 10° SE
APEX 4.1 21:13:57 10° S 21:17:34 37° ESE 21:22:10 10° NE
Okean 3 4.0 21:13:57 10° N 21:18:00 41° ENE 21:21:59 10° SSE
Cosmos 407 Rocket 3.9 21:12:57 10° NNW 21:18:12 66° WSW 21:23:28 10° S
Cosmos 2154 Rocket 4.0 21:12:30 10° S 21:18:37 66° E 21:24:46 10° NNE
Cosmos 1939 Rocket 3.2 21:15:26 10° SE 21:19:09 45° ENE 21:22:57 10° N
COSMOS 2487 2.5 21:18:51 10° NNW 21:22:27 65° ENE 21:25:58 10° SSE
Cosmos 1238 Rocket 3.0 21:19:10 10° N 21:22:32 47° E 21:26:32 10° SSE
Abrixas 3.4 21:19:53 10° SSW 21:22:32 28° SE 21:25:13 10° E
YAOGAN 11 4.2 21:18:41 10° SSE 21:23:13 89° ENE 21:27:49 10° NNW
Cosmos 2082 Rocket 3.2 21:21:27 10° N 21:26:35 33° ENE 21:30:58 13° ESE
SPOT 5 3.7 21:23:32 11° SE 21:28:19 41° ENE 21:33:19 10° N
Cosmos 1452 Rocket 3.9 21:28:31 10° SSW 21:33:45 69° WNW 21:39:02 10° NNE
Lacrosse 5 3.3 21:34:21 10° SSE 21:37:32 17° ESE 21:40:43 10° E
Cosmos 1184 Rocket 2.7 21:34:58 10° S 21:38:18 79° E 21:41:40 10° NNE
Intercosmos 25 3.6 21:38:00 15° SSE 21:40:27 33° E 21:43:21 10° NNE
H-2A R/B 4.0 21:40:11 11° E 21:43:00 15° ENE 21:46:00 10° NNE
Cosmos 2297 3.8 21:39:31 10° S 21:45:06 59° ESE 21:50:44 10° NNE
MetOp-B 4.5 21:43:40 16° SE 21:47:43 50° ENE 21:52:53 10° N
Meteor 1-14 Rocket 4.5 21:44:07 10° SSE 21:49:30 47° E 21:54:48 10° NNE
Meteor 2-13 Rocket 4.4 21:45:44 10° S 21:51:50 71° E 21:57:58 10° NNE
Okean 2 Rocket 3.0 21:48:32 10° S 21:52:57 81° E 21:57:21 10° N
Cosmos 1606 4.1 21:50:48 10° NNW 21:54:29 39° W 21:58:07 10° SSW
BREEZE-M DEB (TANK) 4.2 21:54:49 10° NW 21:56:09 15° N 21:57:41 10° NE
Cosmos 1782 Rocket 3.8 21:53:20 10° SSW 21:57:47 73° W 22:02:17 10° N
SPOT 1/Viking Rocket 4.1 21:55:17 21° SE 21:58:22 43° ENE 22:03:17 10° N
EO 1 Delta rocket 4.2 21:52:46 10° N 21:58:36 81° WNW 22:03:25 10° SSW
USA 229 DEB 4.0 21:55:09 10° NNW 22:02:13 63° NE 22:07:00 22° SE
USA 229 4.0 21:55:16 10° NNW 22:02:20 63° NE 22:07:06 22° SE
Cosmos 1242 Rocket 2.6 21:58:45 10° N 22:02:27 83° W 22:04:46 22° S
Cosmos 1850 Rocket 4.0 22:00:24 10° NNW 22:05:46 87° WSW 22:09:25 21° SSE
COS B Rocket 4.2 22:03:28 10° NNW 22:07:10 43° W 22:10:27 10° SSW
Elektron 3 4.2 22:06:26 10° NW 22:09:23 71° SW 22:11:15 29° SSE
ARGOS 3.5 22:09:06 26° SE 22:11:54 51° ENE 22:17:04 10° N
YAOGAN 6 2.4 22:10:46 36° SSE 22:12:04 72° ENE 22:15:36 10° N
Cosmos 1975 Rocket 3.6 22:08:23 10° NNW 22:12:37 55° W 22:16:09 14° S
Cosmos 2369 Rocket 4.2 22:14:07 11° E 22:14:07 11° E 22:14:47 10° ENE
GPS 2-05 Rocket1 3.8 22:10:04 10° WSW 22:13:27 33° S 22:13:49 32° S
DNEPR-1 R/B 4.3 22:08:37 10° NW 22:13:43 54° WSW 22:16:17 24° S
Lacrosse 5 rocket 1.5 22:10:04 10° SSW 22:13:47 39° SE 22:17:20 10° ENE
OAO 3 Rocket 3.7 22:09:15 10° WSW 22:13:54 41° S 22:15:31 31° SE
Cosmos 2218 Rocket 4.0 22:08:10 12° S 22:14:02 69° E 22:20:24 10° NNE
PSLV R/B 3.1 22:16:18 47° S 22:17:01 76° WSW 22:19:59 10° NNW
SL-08 RB Rocket 4.2 22:15:38 31° ESE 22:17:20 44° ENE 22:21:46 10° N
CZ-4 R/B 4.2 22:14:30 10° NNE 22:18:54 40° E 22:20:06 34° SE
Cosmos 1959 Rocket 4.4 22:16:51 13° S 22:22:17 80° E 22:28:24 10° N
CZ-4 SHROUD 3.4 22:23:31 45° SSW 22:24:16 64° WSW 22:27:21 10° NNW
Gbstr 26 Del rocket 4.1 22:20:14 10° NW 22:25:14 42° NNE 22:27:30 24° E
Cosmos 1536 Rocket 3.6 22:21:11 10° N 22:25:38 61° E 22:27:03 40° SE
AVUM R/B 3.4 22:22:08 10° NNW 22:25:38 65° ENE 22:26:05 57° ESE
Cosmos 1727 Rocket 4.0 22:21:16 10° N 22:27:24 64° E 22:30:27 31° SSE
Cosmos 1741 Rocket 4.5 22:22:49 10° NNW 22:27:56 57° WSW 22:31:03 23° S
Cosmos 1331 Rocket 4.1 22:27:09 32° SSE 22:29:15 52° ESE 22:34:15 10° NNE
Landsat 7 4.4 22:28:19 34° ESE 22:29:38 42° ENE 22:34:07 10° N
NOSS 8 (H) 4.3 22:30:35 36° SSW 22:31:53 77° ESE 22:35:37 10° NE
CZ-4C R/B 3.9 22:36:09 40° E 22:36:33 41° ENE 22:40:30 10° N
Cosmos 1110 Rocket 3.9 22:35:43 25° S 22:38:49 74° ESE 22:44:02 10° NNE
Meteor 1-20 Rocket 4.1 22:39:25 34° S 22:41:53 69° E 22:47:22 10° NNE
Cosmos 1833 Rocket 2.7 22:37:13 10° NNW 22:42:51 78° WSW 22:45:06 38° S
Terra 2.3 22:44:32 39° E 22:45:20 42° ENE 22:49:49 10° N
USA 245 3.7 22:46:36 44° SW 22:47:24 54° W 22:51:40 10° NNW
Cosmos 1339 Rocket 4.4 22:41:16 10° N 22:47:28 76° E 22:50:00 38° SSE
NOSS 3-1 (C) 4.4 22:41:38 10° NNW 22:49:00 54° NE 22:53:00 30° ESE
H-2A R/B 4.3 22:46:54 10° SW 22:50:02 20° W 22:53:10 10° NW
ISS -0.2 22:48:50 10° NW 22:50:48 15° NNW 22:52:46 10° NNE
DMSP B5D2-2 4.3 22:47:44 10° NNE 22:52:47 47° E 22:53:13 46° ESE
Timation 1 Rocket 4.5 22:51:29 10° SSW 22:57:29 75° WNW 23:03:31 10° NNE
Abrixas 3.9 22:55:35 10° W 22:58:22 39° NNW 22:58:22 39° NNW
USA 234 3.8 22:53:01 10° ENE 22:58:07 35° ESE 22:58:07 35° ESE
Cosmos 1300 Rocket 3.4 23:04:46 75° S 23:05:09 88° E 23:09:37 10° N
CZ-4B R/B 4.1 23:00:31 10° N 23:05:16 50° WNW 23:08:19 20° SW
Spot 4 4.1 23:06:33 51° E 23:06:55 52° ENE 23:11:38 10° N
Cosmos 1486 Rocket 3.9 23:03:09 10° NNW 23:08:31 75° ENE 23:09:19 62° SE
Cosmos 2082 Rocket 3.3 23:05:31 10° NW 23:10:39 36° WSW 23:12:49 26° SW
Okean 1 3.4 23:06:37 10° NNW 23:10:39 73° W 23:10:39 73° W
Cosmos 2285 Rocket 4.3 23:12:34 44° ESE 23:12:50 44° ESE 23:18:51 10° NNE
Okean 1 Rocket 3.0 23:13:53 82° SW 23:14:03 86° WNW 23:18:32 10° N
Cosmos 1812 3.3 23:11:29 10° NNW 23:15:11 50° W 23:15:11 50° W
Lacrosse 5 1.9 23:14:50 10° SW 23:19:55 78° NW 23:25:03 10° NE
Genesis I 3.7 23:21:07 60° N 23:21:07 60° N 23:24:38 10° NNE
H-2A R/B 2.2 23:20:50 58° SSW 23:21:48 73° WSW 23:27:06 10° NNW
Meteor 2-4 Rocket 4.1 23:20:48 10° N 23:26:06 47° ENE 23:26:19 47° E
Cosmos 1302 Rocket 4.2 23:32:20 53° SW 23:33:27 70° WNW 23:38:45 10° NNE
Okean 1-7 Rocket 4.0 23:30:42 10° NNW 23:34:56 57° W 23:34:56 57° W
Cosmos 1535 Rocket 4.4 23:37:20 60° S 23:38:37 89° E 23:45:03 10° N
Meteor 1-13 Rocket 4.5 23:37:00 10° NNW 23:42:54 66° W 23:43:51 57° SW
Meteor 2-14 Rocket 4.3 23:42:32 69° SE 23:42:58 71° E 23:49:06 10° NNE
Cosmos 1633 4.4 23:44:51 29° NNE 23:44:51 29° NNE 23:46:47 10° N
ASTEX 1 3.6 23:39:14 10° N 23:44:10 65° W 23:44:25 64° W
Meteor 2-15 4.3 23:39:38 10° N 23:45:46 70° E 23:46:10 68° ESE
Iridium 4 Rocket 3.6 23:43:07 10° N 23:49:04 85° E 23:49:23 80° SSE
Cosmos 1315 Rocket 4.4 23:51:14 29° NNE 23:51:14 29° NNE 23:53:18 10° NNE
Lacrosse 5 rocket 3.3 23:49:49 10° W 23:53:05 25° NW 23:56:15 10° NNE
